This demonstration page uses our WeatherBlox Daily Observations layout. Learn more.

Left ArrowRight Arrow

44.8408, -93.29828

Hourly Observations for February 7, 2019

Temp ( °F °C ) Dew Point ( °F °C ) Humidity (%) Winds ( mph kmh ) Pressure ( in mb ) Visibility ( mi km ) Precip ( " mm )
12:53 am 00:53 Cloudy with Light Wintry Mix 19 -7.2 19 -7.2 100 100 N 6 9 30.03 1017 2 3 0.00 0.03
1:53 am 01:53 Cloudy with Light Wintry Mix 19 -7.2 19 -7.2 100 100 NNW 8 13 30.01 1016 2 3 0.00 0.03
2:53 am 02:53 Cloudy with Light Wintry Mix 19 -7.2 19 -7.2 100 100 NNW 6 9 30.01 1016 2 3 0.00 0.03
3:13 am 03:13 Cloudy with Light Wintry Mix 19 -7.2 19 -7.2 100 100 NW 5 7 30.03 1017 2 3 0.00 0.03
3:53 am 03:53 Cloudy with Light Wintry Mix 19 -7.2 19 -7.2 100 100 NW 7 11 29.97 1015 2 3 0.00 0.03
4:53 am 04:53 Cloudy with Light Wintry Mix 19 -7.2 19 -7.2 100 100 NNW 3 6 29.93 1014 3 4 0.00 0.03
5:15 am 05:15 Cloudy with Light Wintry Mix 19 -7.2 19 -7.2 100 100 NW 3 6 29.95 1014 3 5 0.00 0.03
5:44 am 05:44 Cloudy with Light Wintry Mix 20 -6.7 20 -6.7 100 100 Calm 29.95 1014 2 3 0.01 0.25
5:53 am 05:53 Cloudy with Light Wintry Mix 20 -6.7 20 -6.7 100 100 W 3 6 29.93 1014 2 3 0.01 0.25
6:31 am 06:31 Cloudy with Light Snow 20 -6.7 20 -6.7 100 100 W 5 7 29.94 1014 2 3 0.01 0.25
6:50 am 06:50 Cloudy with Light Snow 19 -7 19 -7 100 100 W 8 13 29.94 1014 1 2 0.02 0.51
6:53 am 06:53 Cloudy with Light Snow 20 -6.7 19 -7.2 96 96 W 8 13 29.92 1013 1 2 0.03 0.76
7:02 am 07:02 Cloudy with Light Snow 20 -6.7 19 -7.2 96 96 W 7 11 29.95 1014 1 1 0.01 0.25
7:30 am 07:30 Mostly Cloudy with Light Snow 19 -7.2 19 -7.2 100 100 W 6 9 29.93 1014 1 1 0.03 0.76
7:53 am 07:53 Mostly Cloudy with Snow 19 -7.2 18 -7.8 96 96 W 6 9 29.90 1012 1 1 0.05 1.27
8:06 am 08:06 Mostly Cloudy with Light Snow 19 -7.2 18 -7.8 96 96 W 9 15 29.93 1014 1 1 0.02 0.51
8:15 am 08:15 Mostly Cloudy with Light Snow 17 -8.3 16 -8.9 95 95 W 10 17 29.92 1013 0 0 0.02 0.51
8:24 am 08:24 Mostly Cloudy with Light Snow 17 -8.3 16 -8.9 95 95 W 9 15 29.92 1013 1 2 0.03 0.76
8:30 am 08:30 Cloudy with Light Snow 17 -8.3 16 -8.9 95 95 W 12 19 29.93 1013 2 2 0.03 0.76
8:38 am 08:38 Cloudy with Light Snow 16 -8.9 15 -9.4 96 96 W 10 17 29.93 1013 1 2 0.03 0.76
8:48 am 08:48 Cloudy with Light Snow 16 -9 16 -9 100 100 W 10 17 29.92 1013 2 3 0.04 1.02
8:53 am 08:53 Cloudy with Light Snow 16 -8.9 15 -9.4 96 96 W 9 15 29.88 1012 3 5 0.04 1.02
9:01 am 09:01 Cloudy with Light Snow 16 -8.9 14 -10 92 92 W 10 17 29.91 1013 2 2 0.00 0.03
9:15 am 09:15 Cloudy with Light Snow 16 -8.9 14 -10 92 92 W 12 19 29.91 1013 1 2 0.00 0.03
9:19 am 09:19 Cloudy with Light Snow 16 -8.9 14 -10 92 92 W 10 17 29.90 1012 1 1 0.01 0.25
9:26 am 09:26 Cloudy with Light Snow 16 -8.9 14 -10 92 92 W 9 15 29.91 1013 2 3 0.01 0.25
9:31 am 09:31 Cloudy with Light Snow 15 -9.4 14 -10 95 95 W 10 17 29.91 1013 4 6 0.01 0.25
9:53 am 09:53 Cloudy with Light Snow 15 -9.4 14 -10 95 95 W 10 17 29.88 1012 1 2 0.02 0.51
10:53 am 10:53 Cloudy with Light Snow 15 -9.4 13 -10.6 91 91 W 7 11 29.86 1011 1 2 0.02 0.51
11:23 am 11:23 Mostly Cloudy with Snow 15 -9.4 13 -10.6 91 91 WSW 6 9 29.89 1012 1 1 0.00 0.03
11:34 am 11:34 Mostly Cloudy with Snow 15 -9.4 13 -10.6 91 91 WSW 8 13 29.89 1012 1 1 0.01 0.25
11:44 am 11:44 Mostly Cloudy with Heavy Snow 14 -10 13 -10.6 95 95 WSW 9 15 29.88 1012 0 0 0.03 0.76
11:53 am 11:53 Mostly Cloudy with Heavy Snow 15 -9.4 13 -10.6 91 91 WSW 8 13 29.84 1011 0 0 0.05 1.27
12:01 pm 12:01 Mostly Cloudy with Light Snow 15 -9.4 13 -10.6 91 91 W 9 15 29.88 1012 1 1 0.01 0.25
12:17 pm 12:17 Mostly Cloudy with Snow 15 -9.4 13 -10.6 91 91 SW 7 11 29.87 1012 0 0 0.03 0.76
12:22 pm 12:22 Mostly Cloudy with Heavy Snow 14 -10 14 -10 100 100 SW 7 11 29.87 1012 0 0 0.03 0.76
12:30 pm 12:30 Mostly Cloudy with Snow 14 -10 13 -10.6 95 95 WSW 9 15 29.86 1011 1 1 0.05 1.27
12:40 pm 12:40 Mostly Cloudy with Light Snow 15 -9.4 13 -10.6 91 91 WSW 10 17 29.86 1011 1 1 0.05 1.27
12:53 pm 12:53 Mostly Cloudy with Light Snow 15 -9.4 13 -10.6 91 91 W 10 17 29.82 1010 1 2 0.06 1.52
12:57 pm 12:57 Mostly Cloudy with Snow 15 -9.4 13 -10.6 91 91 W 10 17 29.85 1011 1 1 0.00 0.03
1:20 pm 13:20 Mostly Cloudy with Light Snow 13 -10.6 12 -11.1 96 96 WSW 12 19 29.84 1011 1 2 0.02 0.51
1:35 pm 13:35 Mostly Cloudy with Light Snow 12 -11.1 10 -12.2 92 92 SW 13 20 29.85 1011 1 1 0.03 0.76
1:53 pm 13:53 Mostly Cloudy with Light Snow 11 -11.7 9 -12.8 92 92 SW 10 17 29.81 1009 1 2 0.03 0.76
2:03 pm 14:03 Cloudy with Light Snow 11 -11.7 9 -12.8 92 92 SW 10 17 29.85 1011 1 2 0.01 0.25
2:09 pm 14:09 Cloudy with Light Snow 11 -11.7 9 -12.8 92 92 SW 9 15 29.85 1011 2 2 0.01 0.25
2:16 pm 14:16 Cloudy with Light Snow 11 -11.7 9 -12.8 92 92 SW 12 19 29.84 1010 2 3 0.01 0.25
2:37 pm 14:37 Cloudy with Light Snow 12 -11.1 9 -12.8 87 87 WSW 12 19 29.84 1010 3 5 0.01 0.25
2:49 pm 14:49 Cloudy with Light Snow 12 -11 9 -13 85 85 WSW 10 17 29.84 1010 2 2 0.01 0.25
2:53 pm 14:53 Cloudy with Light Snow 12 -11.1 9 -12.8 87 87 WSW 10 17 29.80 1009 1 2 0.02 0.51
3:16 pm 15:16 Cloudy with Snow 13 -10.6 11 -11.7 92 92 WSW 12 19 29.83 1010 1 1 0.00 0.03
3:29 pm 15:29 Cloudy with Snow 15 -9.4 13 -10.6 91 91 W 20 31 29.83 1010 1 1 0.01 0.25
3:42 pm 15:42 Cloudy with Light Snow 16 -8.9 14 -10 92 92 WNW 17 28 29.84 1010 1 1 0.01 0.25
3:53 pm 15:53 Cloudy with Light Snow 15 -9.4 13 -10.6 91 91 WNW 18 30 29.81 1010 1 1 0.01 0.25
4:12 pm 16:12 Mostly Cloudy with Light Snow 15 -9.4 13 -10.6 91 91 NW 21 33 29.86 1011 1 2 0.01 0.25
4:45 pm 16:45 Cloudy with Light Snow 14 -10 11 -11.7 88 88 NW 17 28 29.88 1012 2 2 0.02 0.51
4:53 pm 16:53 Cloudy with Light Snow 14 -10 12 -11.1 92 92 NW 15 24 29.85 1011 2 2 0.02 0.51
5:53 pm 17:53 Windy with Snow Likely 11 -11.7 8 -13.3 88 88 NW 20 31 29.89 1012 2 3 0.01 0.25
6:53 pm 18:53 Cloudy with Light Snow 9 -12.8 5 -15 84 84 WNW 17 28 29.95 1014 2 3 0.00 0.03
7:07 pm 19:07 Cloudy with Light Snow 8 -13.3 5 -15 87 87 WNW 18 30 30.01 1016 4 6 0.00 0.03
7:28 pm 19:28 Windy with Snow Likely 8 -13.3 4 -15.6 83 83 WNW 21 33 30.03 1017 5 8 0.00 0.03
7:53 pm 19:53 Windy with Snow Likely 8 -13.3 4 -15.6 83 83 WNW 21 33 30.00 1016 5 8 0.00 0.03
8:53 pm 20:53 Cloudy with Light Snow 5 -15 1 -17.2 83 83 W 18 30 30.04 1017 3 5 0.00 0.03
8:56 pm 20:56 Cloudy with Light Snow 5 -15 1 -17.2 83 83 W 18 30 30.09 1019 3 4 0.00 0.03
8:57 pm 20:57 Windy with Snow Likely 5 -15 1 -17.2 83 83 W 21 33 30.09 1019 3 5 0.00 0.03
9:11 pm 21:11 Windy with Snow Likely 3 -16.1 0 -17.8 87 87 W 20 31 30.11 1020 5 8 0.00 0.03
9:53 pm 21:53 Cloudy with Light Snow 1 -17.2 -3 -19.4 83 83 WNW 18 30 30.10 1019 5 8 0.00 0.03
10:53 pm 22:53 Mostly Cloudy -3 -19.4 -7 -21.7 82 82 WNW 16 26 30.14 1021 10 16 0.00 0.03
11:53 pm 23:53 Partly Cloudy -5 -20.6 -10 -23.3 79 79 WNW 18 30 30.17 1022 10 16 0.00 0.00

Powered by AerisWeather